N119UV KGCN-KVGT

Flight info

Callsign N119UV
Flight time 1h 3m
Altitude 10000
Route PGS V562 LAS
Aircraft DA40/L-G/S

Departure

Time 2026-05-04 01:12
Airport Grand Canyon National Park Airport (KGCN)

Arrival

Time 2026-05-04 02:15
Airport North Las Vegas Airport (KVGT)
Time Latitude Longitude Altitude Speed Heading
2026-05-04 00:57 35.96079 -112.13591 6614 ft 0 kts 39°
2026-05-04 01:08 35.96080 -112.13591 6614 ft 0 kts 38°
2026-05-04 01:08 35.96101 -112.13586 6614 ft 3 kts 351°
2026-05-04 01:09 35.96130 -112.13592 6613 ft 3 kts 339°
2026-05-04 01:09 35.96133 -112.13595 6613 ft 0 kts 308°
2026-05-04 01:10 35.96137 -112.13603 6613 ft 5 kts 297°
2026-05-04 01:10 35.96137 -112.13655 6611 ft 5 kts 268°
2026-05-04 01:10 35.96143 -112.13718 6610 ft 11 kts 257°
2026-05-04 01:10 35.96073 -112.13811 6605 ft 34 kts 221°
2026-05-04 01:11 35.95817 -112.14085 6678 ft 53 kts 221°
2026-05-04 01:11 35.95524 -112.14394 6839 ft 57 kts 222°
2026-05-04 01:11 35.95227 -112.14668 7106 ft 52 kts 220°
2026-05-04 01:11 35.94832 -112.14918 7127 ft 78 kts 198°
2026-05-04 01:12 35.94323 -112.14960 7429 ft 69 kts 190°
2026-05-04 01:12 35.93858 -112.14918 7554 ft 69 kts 189°
2026-05-04 01:12 35.93401 -112.14957 7695 ft 66 kts 200°
2026-05-04 01:12 35.92955 -112.15109 7824 ft 67 kts 202°
2026-05-04 01:13 35.92509 -112.15242 7968 ft 66 kts 201°
2026-05-04 01:13 35.92057 -112.15369 8058 ft 68 kts 202°
2026-05-04 01:13 35.91614 -112.15508 8247 ft 63 kts 201°
2026-05-04 01:13 35.91174 -112.15634 8309 ft 68 kts 201°
2026-05-04 01:14 35.90704 -112.15808 8428 ft 70 kts 202°
2026-05-04 01:14 35.90243 -112.15953 8566 ft 68 kts 200°
2026-05-04 01:14 35.89786 -112.16105 8727 ft 67 kts 200°
2026-05-04 01:14 35.89346 -112.16233 8879 ft 65 kts 199°
2026-05-04 01:15 35.88905 -112.16366 9000 ft 66 kts 200°
2026-05-04 01:15 35.88452 -112.16497 9133 ft 68 kts 200°
2026-05-04 01:15 35.87992 -112.16619 9280 ft 67 kts 200°
2026-05-04 01:15 35.87539 -112.16742 9415 ft 67 kts 199°
2026-05-04 01:16 35.87083 -112.16886 9555 ft 68 kts 201°
2026-05-04 01:16 35.86628 -112.17033 9683 ft 68 kts 201°
2026-05-04 01:16 35.86169 -112.17178 9792 ft 68 kts 201°
2026-05-04 01:16 35.85710 -112.17320 10046 ft 68 kts 201°
2026-05-04 01:17 35.85256 -112.17455 10140 ft 67 kts 200°
2026-05-04 01:17 35.84786 -112.17647 10171 ft 78 kts 217°
2026-05-04 01:17 35.84537 -112.18289 10179 ft 96 kts 259°
2026-05-04 01:17 35.84652 -112.19166 10187 ft 109 kts 270°
2026-05-04 01:18 35.84805 -112.20103 10175 ft 114 kts 271°
2026-05-04 01:18 35.84959 -112.21073 10167 ft 117 kts 271°
2026-05-04 01:18 35.85113 -112.22064 10163 ft 119 kts 271°
2026-05-04 01:18 35.85212 -112.23066 10146 ft 114 kts 253°
2026-05-04 01:19 35.84778 -112.23800 10141 ft 109 kts 208°
2026-05-04 01:19 35.84055 -112.24076 10141 ft 109 kts 199°
2026-05-04 01:19 35.83316 -112.24299 10139 ft 109 kts 199°
2026-05-04 01:19 35.82675 -112.24762 10130 ft 107 kts 214°
2026-05-04 01:20 35.82018 -112.25186 10122 ft 107 kts 205°
2026-05-04 01:20 35.81306 -112.25460 10116 ft 106 kts 206°
2026-05-04 01:20 35.80653 -112.25856 10112 ft 104 kts 209°
2026-05-04 01:20 35.80020 -112.26281 10110 ft 104 kts 211°
2026-05-04 01:21 35.79399 -112.26719 10093 ft 101 kts 211°
2026-05-04 01:21 35.78800 -112.27151 10091 ft 99 kts 212°
2026-05-04 01:21 35.78208 -112.27587 10095 ft 100 kts 212°
2026-05-04 01:21 35.77607 -112.28031 10083 ft 102 kts 212°
2026-05-04 01:22 35.77000 -112.28482 10084 ft 102 kts 212°
2026-05-04 01:22 35.76391 -112.28934 10076 ft 102 kts 212°
2026-05-04 01:22 35.75784 -112.29384 10060 ft 101 kts 212°
2026-05-04 01:22 35.75187 -112.29826 10055 ft 100 kts 212°
2026-05-04 01:23 35.74591 -112.30268 10050 ft 100 kts 212°
2026-05-04 01:23 35.73994 -112.30710 10044 ft 100 kts 213°
2026-05-04 01:23 35.73402 -112.31151 10039 ft 99 kts 212°
2026-05-04 01:23 35.72816 -112.31587 10034 ft 98 kts 212°
2026-05-04 01:24 35.72226 -112.32024 10025 ft 99 kts 211°
2026-05-04 01:24 35.71633 -112.32463 10020 ft 100 kts 212°
2026-05-04 01:24 35.71040 -112.32903 10004 ft 99 kts 211°
2026-05-04 01:24 35.70461 -112.33333 9999 ft 98 kts 212°
2026-05-04 01:25 35.69872 -112.33770 9990 ft 99 kts 212°
2026-05-04 01:25 35.69273 -112.34214 9985 ft 102 kts 212°
2026-05-04 01:25 35.68664 -112.34665 9981 ft 103 kts 212°
2026-05-04 01:25 35.68045 -112.35124 9973 ft 104 kts 212°
2026-05-04 01:26 35.67426 -112.35585 9967 ft 104 kts 212°
2026-05-04 01:26 35.66812 -112.36039 9962 ft 102 kts 212°
2026-05-04 01:26 35.66203 -112.36490 9952 ft 102 kts 211°
2026-05-04 01:26 35.65599 -112.36937 9945 ft 102 kts 212°
2026-05-04 01:27 35.64992 -112.37386 9951 ft 102 kts 212°
2026-05-04 01:27 35.64385 -112.37835 9932 ft 102 kts 212°
2026-05-04 01:27 35.63776 -112.38286 9926 ft 102 kts 211°
2026-05-04 01:27 35.63171 -112.38735 9918 ft 102 kts 211°
2026-05-04 01:28 35.62563 -112.39184 9910 ft 102 kts 211°
2026-05-04 01:28 35.61954 -112.39634 9900 ft 102 kts 212°
2026-05-04 01:28 35.61347 -112.40082 9896 ft 101 kts 212°
2026-05-04 01:28 35.60742 -112.40529 9883 ft 102 kts 212°
2026-05-04 01:29 35.60138 -112.40976 9896 ft 101 kts 211°
2026-05-04 01:29 35.59529 -112.41427 9892 ft 103 kts 212°
2026-05-04 01:29 35.59141 -112.41762 9894 ft 103 kts 219°
2026-05-04 01:29 35.58669 -112.42437 9895 ft 106 kts 233°
2026-05-04 01:30 35.58371 -112.43284 9891 ft 111 kts 248°
2026-05-04 01:30 35.58300 -112.44239 9887 ft 116 kts 263°
2026-05-04 01:30 35.58343 -112.45225 9887 ft 116 kts 263°
2026-05-04 01:30 35.58386 -112.46215 9879 ft 116 kts 262°
2026-05-04 01:31 35.58428 -112.47194 9880 ft 114 kts 262°
2026-05-04 01:31 35.58469 -112.48157 9880 ft 112 kts 262°
2026-05-04 01:31 35.58508 -112.49113 9879 ft 112 kts 262°
2026-05-04 01:31 35.58548 -112.50064 9880 ft 111 kts 262°
2026-05-04 01:32 35.58588 -112.51001 9876 ft 109 kts 261°
2026-05-04 01:32 35.58625 -112.51937 9878 ft 112 kts 262°
2026-05-04 01:32 35.58664 -112.52905 9880 ft 115 kts 262°
2026-05-04 01:32 35.58706 -112.53899 9879 ft 117 kts 262°
2026-05-04 01:33 35.58749 -112.54899 9886 ft 117 kts 262°
2026-05-04 01:33 35.58791 -112.55896 9891 ft 118 kts 262°
2026-05-04 01:33 35.58832 -112.56909 9883 ft 120 kts 262°
2026-05-04 01:33 35.58875 -112.57936 9885 ft 121 kts 264°
2026-05-04 01:34 35.58918 -112.58967 9874 ft 121 kts 264°
2026-05-04 01:34 35.58962 -112.59988 9876 ft 119 kts 263°
2026-05-04 01:34 35.59003 -112.61013 9877 ft 121 kts 263°
2026-05-04 01:34 35.59044 -112.62045 9876 ft 121 kts 262°
2026-05-04 01:35 35.59087 -112.63074 9875 ft 120 kts 263°
2026-05-04 01:35 35.59128 -112.64085 9875 ft 120 kts 262°
2026-05-04 01:35 35.59170 -112.65109 9874 ft 120 kts 262°
2026-05-04 01:35 35.59212 -112.66129 9875 ft 120 kts 262°
2026-05-04 01:36 35.59253 -112.67151 9877 ft 120 kts 263°
2026-05-04 01:36 35.59294 -112.68178 9876 ft 121 kts 264°
2026-05-04 01:36 35.59336 -112.69208 9878 ft 121 kts 263°
2026-05-04 01:36 35.59377 -112.70244 9878 ft 122 kts 263°
2026-05-04 01:37 35.59419 -112.71283 9874 ft 122 kts 263°
2026-05-04 01:37 35.59461 -112.72324 9872 ft 122 kts 264°
2026-05-04 01:37 35.59503 -112.73360 9871 ft 121 kts 263°
2026-05-04 01:37 35.59544 -112.74388 9873 ft 120 kts 263°
2026-05-04 01:38 35.59585 -112.75413 9870 ft 119 kts 262°
2026-05-04 01:38 35.59625 -112.76433 9870 ft 120 kts 262°
2026-05-04 01:38 35.59665 -112.77454 9872 ft 120 kts 263°
2026-05-04 01:38 35.59707 -112.78482 9872 ft 120 kts 263°
2026-05-04 01:39 35.59748 -112.79498 9878 ft 119 kts 262°
2026-05-04 01:39 35.59854 -112.82430 9872 ft 123 kts 263°
2026-05-04 01:39 35.60466 -112.98447 9860 ft 114 kts 263°
2026-05-04 01:39 35.61142 -113.14096 9822 ft 115 kts 262°
2026-05-04 01:40 35.61618 -113.29676 9806 ft 118 kts 261°
2026-05-04 01:40 35.61928 -113.38451 9803 ft 119 kts 260°
2026-05-04 01:40 35.62188 -113.45732 9781 ft 125 kts 262°
2026-05-04 01:40 35.62414 -113.52747 9757 ft 123 kts 262°
2026-05-04 01:41 35.62454 -113.53782 9759 ft 124 kts 265°
2026-05-04 01:41 35.62714 -113.54830 9759 ft 134 kts 286°
2026-05-04 01:41 35.63248 -113.55801 9760 ft 138 kts 294°
2026-05-04 01:41 35.66497 -113.61404 9755 ft 135 kts 294°
2026-05-04 01:42 35.75319 -113.76743 9702 ft 141 kts 291°
2026-05-04 01:42 35.78086 -113.81625 9723 ft 144 kts 293°
2026-05-04 01:42 35.78655 -113.82611 9726 ft 143 kts 292°
2026-05-04 01:42 35.79226 -113.83611 9727 ft 143 kts 292°
2026-05-04 01:43 35.84686 -113.93182 9701 ft 141 kts 293°
2026-05-04 01:43 35.89480 -114.01565 9699 ft 138 kts 293°
2026-05-04 01:43 35.90028 -114.02541 9694 ft 138 kts 290°
2026-05-04 01:43 35.90577 -114.03508 9694 ft 137 kts 291°
2026-05-04 01:44 35.91125 -114.04468 9696 ft 137 kts 292°
2026-05-04 01:44 35.91671 -114.05429 9697 ft 137 kts 292°
2026-05-04 01:44 35.92214 -114.06389 9700 ft 136 kts 292°
2026-05-04 01:44 35.92757 -114.07343 9703 ft 136 kts 290°
2026-05-04 01:45 35.93300 -114.08298 9704 ft 136 kts 290°
2026-05-04 01:45 35.93841 -114.09255 9706 ft 136 kts 291°
2026-05-04 01:45 35.94917 -114.11144 9801 ft 129 kts 291°
2026-05-04 01:46 35.95422 -114.12036 9905 ft 126 kts 290°
2026-05-04 01:46 35.95931 -114.12944 9918 ft 132 kts 290°
2026-05-04 01:46 35.96464 -114.13881 9906 ft 134 kts 292°
2026-05-04 01:46 35.97006 -114.14834 9907 ft 136 kts 292°
2026-05-04 01:47 35.97553 -114.15802 9903 ft 138 kts 290°
2026-05-04 01:47 35.98107 -114.16780 9903 ft 139 kts 293°
2026-05-04 01:47 35.98666 -114.17760 9899 ft 139 kts 291°
2026-05-04 01:47 35.99217 -114.18736 9903 ft 138 kts 293°
2026-05-04 01:48 35.99767 -114.19707 9901 ft 138 kts 293°
2026-05-04 01:48 36.00309 -114.20668 9906 ft 136 kts 292°
2026-05-04 01:48 36.00836 -114.21625 9820 ft 131 kts 283°
2026-05-04 01:48 36.01221 -114.22506 9936 ft 110 kts 291°
2026-05-04 01:49 36.01710 -114.23286 9984 ft 128 kts 292°
2026-05-04 01:49 36.02274 -114.24201 9916 ft 136 kts 294°
2026-05-04 01:49 36.02829 -114.25138 9911 ft 134 kts 292°
2026-05-04 01:49 36.03393 -114.26045 9989 ft 141 kts 290°
2026-05-04 01:50 36.03936 -114.27059 9910 ft 141 kts 292°
2026-05-04 01:50 36.04486 -114.28050 9910 ft 139 kts 291°
2026-05-04 01:50 36.05028 -114.29017 9911 ft 139 kts 292°
2026-05-04 01:50 36.05579 -114.29994 9911 ft 139 kts 291°
2026-05-04 01:51 36.06130 -114.30975 9911 ft 139 kts 291°
2026-05-04 01:51 36.06682 -114.31958 9911 ft 139 kts 291°
2026-05-04 01:51 36.07238 -114.32942 9911 ft 140 kts 291°
2026-05-04 01:51 36.07798 -114.33930 9913 ft 141 kts 293°
2026-05-04 01:52 36.08357 -114.34924 9910 ft 140 kts 292°
2026-05-04 01:52 36.08907 -114.35898 9906 ft 137 kts 294°
2026-05-04 01:52 36.09441 -114.36864 9905 ft 134 kts 288°
2026-05-04 01:52 36.09804 -114.37898 9907 ft 130 kts 279°
2026-05-04 01:53 36.10148 -114.38938 9901 ft 131 kts 279°
2026-05-04 01:53 36.10517 -114.39966 9899 ft 130 kts 280°
2026-05-04 01:53 36.10897 -114.40971 9895 ft 127 kts 281°
2026-05-04 01:53 36.11245 -114.41864 10032 ft 113 kts 279°
2026-05-04 01:54 36.11592 -114.42851 9903 ft 128 kts 281°
2026-05-04 01:54 36.11951 -114.43852 9902 ft 127 kts 282°
2026-05-04 01:54 36.12309 -114.44844 9901 ft 126 kts 282°
2026-05-04 01:54 36.12644 -114.45847 9901 ft 126 kts 281°
2026-05-04 01:55 36.13125 -114.46782 9900 ft 140 kts 308°
2026-05-04 01:55 36.13989 -114.47407 9900 ft 148 kts 329°
2026-05-04 01:55 36.15027 -114.47684 9889 ft 151 kts 332°
2026-05-04 01:55 36.15793 -114.48399 9884 ft 131 kts 288°
2026-05-04 01:56 36.16181 -114.49390 9888 ft 128 kts 282°
2026-05-04 01:56 36.16527 -114.50409 9888 ft 129 kts 281°
2026-05-04 01:56 36.16857 -114.51444 9884 ft 129 kts 281°
2026-05-04 01:56 36.17184 -114.52474 9805 ft 130 kts 281°
2026-05-04 01:57 36.17526 -114.53510 9667 ft 130 kts 280°
2026-05-04 01:57 36.17855 -114.54554 9516 ft 126 kts 269°
2026-05-04 01:57 36.17716 -114.55550 9362 ft 116 kts 244°
2026-05-04 01:57 36.17425 -114.56411 9206 ft 104 kts 240°
2026-05-04 01:58 36.17155 -114.57225 9054 ft 99 kts 233°
2026-05-04 01:58 36.16788 -114.57975 8905 ft 106 kts 231°
2026-05-04 01:58 36.16379 -114.58759 8764 ft 114 kts 231°
2026-05-04 01:58 36.15920 -114.59581 8626 ft 117 kts 224°
2026-05-04 01:59 36.15416 -114.60301 8470 ft 106 kts 229°
2026-05-04 01:59 36.15047 -114.61059 8324 ft 104 kts 242°
2026-05-04 01:59 36.14869 -114.61923 8183 ft 103 kts 245°
2026-05-04 01:59 36.14723 -114.62793 8038 ft 104 kts 248°
2026-05-04 02:00 36.14593 -114.63685 7885 ft 105 kts 250°
2026-05-04 02:00 36.14477 -114.64575 7745 ft 104 kts 248°
2026-05-04 02:00 36.14363 -114.65452 7604 ft 104 kts 249°
2026-05-04 02:00 36.14251 -114.66331 7460 ft 104 kts 249°
2026-05-04 02:01 36.14141 -114.67213 7320 ft 104 kts 249°
2026-05-04 02:01 36.14030 -114.68095 7175 ft 104 kts 249°
2026-05-04 02:01 36.13923 -114.68980 7039 ft 105 kts 248°
2026-05-04 02:01 36.13811 -114.69873 6896 ft 105 kts 248°
2026-05-04 02:02 36.13699 -114.70762 6754 ft 104 kts 248°
2026-05-04 02:02 36.13591 -114.71633 6611 ft 101 kts 247°
2026-05-04 02:02 36.13472 -114.72531 6481 ft 114 kts 248°
2026-05-04 02:02 36.13339 -114.73556 6349 ft 125 kts 250°
2026-05-04 02:03 36.13210 -114.74627 6210 ft 126 kts 249°
2026-05-04 02:03 36.13084 -114.75680 6155 ft 118 kts 250°
2026-05-04 02:03 36.12972 -114.76626 6163 ft 109 kts 248°
2026-05-04 02:03 36.12847 -114.77572 6168 ft 114 kts 248°
2026-05-04 02:04 36.12720 -114.78554 6169 ft 117 kts 248°
2026-05-04 02:04 36.12594 -114.79559 6173 ft 119 kts 249°
2026-05-04 02:04 36.12466 -114.80581 6171 ft 120 kts 249°
2026-05-04 02:04 36.12341 -114.81602 6170 ft 121 kts 251°
2026-05-04 02:05 36.12211 -114.82623 6171 ft 120 kts 249°
2026-05-04 02:05 36.12081 -114.83642 6166 ft 121 kts 250°
2026-05-04 02:05 36.11952 -114.84673 6169 ft 121 kts 249°
2026-05-04 02:05 36.11823 -114.85692 6168 ft 122 kts 249°
2026-05-04 02:06 36.11689 -114.86748 6171 ft 123 kts 249°
2026-05-04 02:06 36.11558 -114.87794 6171 ft 123 kts 251°
2026-05-04 02:06 36.11425 -114.88846 6170 ft 124 kts 250°
2026-05-04 02:06 36.11293 -114.89901 6128 ft 123 kts 250°
2026-05-04 02:07 36.11165 -114.90918 6126 ft 120 kts 251°
2026-05-04 02:07 36.11037 -114.91936 6128 ft 120 kts 250°
2026-05-04 02:07 36.10905 -114.92966 6131 ft 122 kts 250°
2026-05-04 02:07 36.10758 -114.94009 6132 ft 124 kts 250°
2026-05-04 02:08 36.10613 -114.95066 6133 ft 126 kts 250°
2026-05-04 02:08 36.10470 -114.96148 6131 ft 128 kts 251°
2026-05-04 02:08 36.10332 -114.97234 6131 ft 124 kts 249°
2026-05-04 02:08 36.10201 -114.98267 6218 ft 120 kts 250°
2026-05-04 02:09 36.10010 -114.99253 6274 ft 100 kts 227°
2026-05-04 02:09 36.09487 -114.99672 6189 ft 91 kts 186°
2026-05-04 02:09 36.08940 -114.99408 6204 ft 78 kts 155°
2026-05-04 02:09 36.08558 -114.98976 6177 ft 71 kts 150°
2026-05-04 02:10 36.08215 -114.98575 6135 ft 67 kts 153°
2026-05-04 02:10 36.07814 -114.98262 5947 ft 69 kts 176°
2026-05-04 02:10 36.07369 -114.98335 5761 ft 65 kts 234°
2026-05-04 02:10 36.07403 -114.99090 5183 ft 102 kts 279°
2026-05-04 02:11 36.07478 -114.99931 4737 ft 95 kts 267°
2026-05-04 02:11 36.07476 -115.00736 4297 ft 92 kts 262°
2026-05-04 02:11 36.07456 -115.01524 3907 ft 87 kts 269°
2026-05-04 02:11 36.07425 -115.02227 3601 ft 80 kts 273°
2026-05-04 02:12 36.07373 -115.02875 3487 ft 73 kts 249°
2026-05-04 02:12 36.07373 -115.03529 3479 ft 74 kts 256°
2026-05-04 02:12 36.07370 -115.04165 3374 ft 76 kts 259°
2026-05-04 02:12 36.07367 -115.04831 3348 ft 79 kts 257°
2026-05-04 02:13 36.07345 -115.05528 3238 ft 83 kts 257°
2026-05-04 02:13 36.07376 -115.06280 3145 ft 88 kts 265°
2026-05-04 02:13 36.07368 -115.07013 3009 ft 78 kts 259°
2026-05-04 02:13 36.07371 -115.07687 2854 ft 77 kts 258°
2026-05-04 02:14 36.07390 -115.08363 2785 ft 82 kts 259°
2026-05-04 02:14 36.07369 -115.09082 2671 ft 82 kts 259°
2026-05-04 02:14 36.07394 -115.09780 2525 ft 76 kts 261°
2026-05-04 02:14 36.07372 -115.10435 2419 ft 80 kts 254°
2026-05-04 02:15 36.07382 -115.11141 2385 ft 82 kts 260°
2026-05-04 02:15 36.07356 -115.11832 2360 ft 79 kts 259°
2026-05-04 02:15 36.07359 -115.12453 2188 ft 74 kts 260°
2026-05-04 02:15 36.07358 -115.12999 2118 ft 45 kts 262°
2026-05-04 02:16 36.07354 -115.13150 2114 ft 15 kts 267°
2026-05-04 02:16 36.07369 -115.13436 2114 ft 50 kts 261°
2026-05-04 02:16 36.07395 -115.13635 2112 ft 8 kts 49°
2026-05-04 02:16 36.07441 -115.13519 2113 ft 18 kts 62°
2026-05-04 02:17 36.07470 -115.13457 2114 ft 0 kts 58°
2026-05-04 02:17 36.07496 -115.13484 2114 ft 11 kts 280°